Dewpoint
73 72 73 73 73 72 72 72 72 72 71 71 71 71 71 72 71 71 71 70 70 72 72 72 73 73 73 73 74 74 74 74 74 74 75 75 75 75 74 74 73 74 74 75 75 75 74 73 73 73 75 73 73 74 74 73 72 71 70 72 72 72 70 69 67 68 69 71 73 73 73 73 71 73 72 72 72 72 74 73 74 73 74 74 73
73 72 71 69 69 70 70 71 71 72 71 70 71 71 71 71 71 71 70 70 69 71 71 71 72 73 73 72 73 73 73 74 74 74 74 75 75 75 74 74 73 74 74 74 74 74 73 73 73 74 74 73 72 71 71 71 70 70 70 70 70 71 72 70 69 68 68 70 71 73 72 74 70 71 71 72 72 74 72 72 72 73 73 74 74
71 71 72 71 71 71 70 70 70 70 70 69 69 70 70 70 71 70 70 69 70 69 71 71 72 72 72 72 72 72 73 73 73 73 74 74 74 74 74 74 73 73 73 73 73 73 73 72 73 74 74 73 72 72 72 71 70 69 69 70 69 69 71 71 70 69 69 70 71 71 71 72 70 71 72 73 74 73 72 72 71 72 74 75 75
72 71 71 72 72 72 71 72 72 71 71 71 70 69 68 68 71 70 69 69 69 69 70 71 71 72 71 71 71 71 72 72 72 72 73 73 73 73 73 72 73 73 73 73 73 74 73 73 72 72 73 72 71 71 71 71 70 69 69 70 70 70 70 72 71 69 69 68 68 71 71 70 71 73 74 74 73 72 72 72 73 74 74 75 75
72 71 71 71 72 72 72 72 71 71 71 72 71 70 69 69 69 69 69 68 68 69 70 70 71 71 71 71 71 71 71 72 72 71 72 73 73 72 72 72 72 72 73 73 75 73 73 72 72 72 72 71 71 71 71 71 70 70 69 68 70 70 71 72 72 71 69 68 68 69 71 72 72 73 72 72 72 73 73 73 73 72 73 73 73
72 71 71 71 71 71 71 72 72 71 72 72 72 72 70 69 68 69 69 69 68 68 69 69 69 71 71 71 71 71 71 72 72 71 71 72 72 72 72 72 72 72 72 73 73 73 72 72 71 71 71 71 70 70 70 71 70 69 69 69 69 70 71 71 71 71 70 69 68 69 69 70 70 71 72 72 73 72 71 70 70 71 72 72 73
72 72 70 71 70 70 71 72 72 73 73 73 73 73 72 71 69 68 69 71 69 67 68 69 69 68 70 71 71 71 71 72 72 71 71 71 72 72 72 71 71 71 72 72 72 72 72 72 72 72 71 71 71 70 70 70 70 69 69 70 70 69 70 70 69 69 70 70 70 70 71 71 71 71 72 72 72 72 70 68 67 68 69 71 71
72 72 72 71 70 70 71 72 72 72 73 73 72 73 73 72 71 70 71 72 71 68 66 68 69 69 68 69 70 71 72 72 72 72 71 70 71 72 72 71 71 71 70 71 71 71 72 72 72 72 72 71 71 71 71 70 70 70 70 70 70 70 69 68 68 68 69 69 69 69 69 69 69 70 70 69 68 68 69 68 67 68 69 70 72
70 71 72 72 72 72 72 72 73 73 73 72 71 72 72 72 72 73 73 72 73 72 67 66 67 69 69 69 69 69 69 70 71 72 72 71 70 70 70 71 71 71 70 70 70 70 70 70 70 70 71 75 74 73 72 72 69 69 69 70 69 68 67 67 68 68 68 68 68 68 68 69 69 69 69 68 68 68 68 68 68 69 70 70 71
70 70 71 71 71 71 71 73 73 72 72 71 71 71 72 73 74 74 74 74 73 72 72 67 66 67 69 70 69 69 69 69 71 69 71 72 71 70 70 70 70 70 70 70 70 70 69 69 69 74 76 77 76 74 73 73 74 71 68 68 69 69 69 68 68 69 68 68 68 69 69 69 70 69 69 69 69 68 69 68 67 68 68 70 70
69 70 70 71 71 72 72 71 71 71 72 72 72 73 73 74 74 74 73 72 72 72 72 71 70 67 66 69 70 69 68 69 68 65 65 68 71 71 70 70 71 70 70 69 69 69 69 69 69 72 76 78 75 74 73 72 71 72 73 73 72 69 68 69 69 69 69 69 70 69 69 69 69 70 70 70 69 69 68 68 67 67 68 67 66
66 66 67 69 70 71 71 71 70 71 71 70 71 71 72 73 72 72 72 72 72 73 72 72 71 71 70 68 67 69 69 69 65 64 64 64 68 71 71 70 70 70 70 69 69 69 69 68 68 68 69 69 70 70 72 72 70 69 69 70 71 72 71 69 68 68 69 69 69 69 69 69 69 69 69 69 69 69 69 69 68 67 66 66 65
63 63 65 67 68 69 70 71 70 70 71 70 70 71 71 72 72 73 73 74 74 72 72 72 72 72 71 70 71 72 71 67 64 62 63 63 63 68 70 71 70 70 70 69 69 69 68 69 68 68 66 72 73 69 67 66 67 68 68 69 70 69 67 67 69 70 69 69 69 68 68 68 68 68 69 69 68 68 68 68 68 67 68 68 68
59 60 62 65 65 66 68 70 70 69 70 71 71 71 71 70 71 72 73 73 73 73 73 72 72 71 71 71 71 71 71 70 65 62 60 60 61 63 68 70 70 70 70 70 69 69 69 68 68 68 68 68 68 68 68 68 69 69 69 69 69 70 69 67 67 67 69 69 68 67 67 69 67 67 68 68 66 66 65 65 65 66 67 67 68
58 58 59 61 63 64 65 66 68 69 70 70 70 70 70 71 71 72 73 73 73 73 73 72 72 72 72 72 71 71 70 67 64 63 60 58 58 61 65 67 69 70 70 70 70 69 69 69 68 68 68 68 68 68 66 66 65 66 66 66 67 67 67 67 67 67 68 67 67 67 66 66 66 66 66 65 65 66 66 65 65 66 67 70 71
61 61 61 61 62 63 64 65 66 67 69 70 69 69 70 70 70 71 71 72 72 73 73 73 72 72 72 72 72 71 71 65 64 63 62 59 59 63 64 65 66 68 70 70 70 70 70 69 69 68 68 68 70 68 70 68 66 65 65 65 66 67 67 69 65 65 68 67 67 66 66 65 64 65 65 64 64 65 67 69 70 71 70 69 68
58 60 59 60 64 65 66 65 65 65 66 66 67 67 68 68 68 70 70 69 68 70 71 72 72 73 73 73 72 72 72 67 62 60 60 59 60 64 64 65 65 66 67 69 70 70 70 69 69 68 68 67 68 64 64 69 68 67 66 65 65 65 66 68 66 63 62 61 62 63 62 62 61 60 60 61 65 66 65 64 63 63 65 65 66
53 55 54 55 56 56 61 63 64 64 63 64 65 67 67 67 67 68 70 69 68 68 69 71 71 72 72 72 72 72 72 70 61 57 57 57 62 64 64 64 64 65 66 67 68 69 70 72 73 69 68 68 65 63 63 67 67 67 67 67 67 67 67 68 68 68 64 61 61 61 61 62 62 62 62 62 62 65 65 65 66 65 63 64 63
56 56 54 54 55 56 55 58 60 62 62 63 65 66 66 65 67 68 70 69 69 69 69 70 70 70 70 70 73 72 72 70 63 59 59 55 60 65 65 65 65 65 65 65 66 67 68 71 73 71 69 67 62 62 61 66 68 68 67 67 66 65 65 65 66 66 66 66 66 67 67 67 68 67 68 65 65 70 67 66 66 65 65 64 64
57 56 56 55 55 56 56 59 59 59 58 58 60 63 67 66 65 66 67 68 68 69 70 67 67 68 67 66 66 67 71 72 70 61 59 58 57 68 68 67 67 66 66 66 66 66 67 67 69 63 61 61 60 59 58 58 65 66 65 65 64 63 64 64 66 65 66 66 66 66 66 67 68 69 69 69 70 71 69 67 66 66 66 65 65
56 56 56 56 56 57 57 58 59 57 56 57 59 60 61 64 65 66 66 66 67 67 67 67 67 67 66 67 67 68 70 71 71 64 60 58 56 60 68 68 68 68 68 68 68 68 67 68 68 66 60 59 58 57 56 56 60 65 66 66 66 66 67 66 67 72 68 68 68 68 68 68 68 68 69 69 69 69 69 68 68 67 66 66 65
55 55 56 57 58 58 58 58 59 57 57 58 56 56 58 59 62 65 66 66 66 67 67 68 68 68 68 68 69 70 71 72 72 67 61 58 56 54 65 68 69 69 69 69 69 69 69 68 68 66 61 59 57 56 55 56 57 65 66 61 61 62 66 68 68 68 68 68 68 69 70 70 70 71 71 71 71 71 70 70 68 68 67 67 67
55 55 56 56 57 57 57 58 58 57 58 58 56 56 56 56 57 60 62 64 66 66 67 67 67 68 68 69 70 70 71 72 69 71 66 60 57 53 54 62 63 69 69 69 69 69 70 70 70 70 61 57 55 54 54 54 56 60 57 57 57 59 63 65 66 67 67 68 68 68 68 68 69 69 69 69 70 70 71 71 71 70 69 68 68
55 56 57 56 56 57 57 58 57 56 57 58 58 56 56 57 58 58 59 60 61 61 63 65 66 68 68 69 69 71 71 72 71 70 69 63 57 53 52 53 55 63 67 68 68 69 69 69 66 54 52 49 49 51 52 52 58 55 54 56 57 59 63 64 65 66 67 67 67 67 68 68 69 69 69 70 70 70 70 70 71 72 72 71 70
56 56 56 55 56 55 56 56 56 56 56 56 56 57 57 57 57 58 59 59 59 60 61 63 63 64 66 67 69 71 72 73 72 71 68 65 60 55 53 52 52 52 59 63 66 66 63 56 54 55 55 55 54 55 56 57 54 52 52 53 58 62 64 64 65 66 66 66 67 67 67 68 68 69 70 70 70 70 70 70 70 70 71 71 72
55 55 53 53 53 54 54 54 55 56 55 56 57 57 57 58 58 58 58 58 58 58 60 60 61 58 56 61 63 64 66 65 63 67 71 72 68 62 57 55 58 58 59 63 61 58 55 54 53 53 55 58 63 65 66 66 61 58 56 58 61 62 63 64 65 65 65 66 66 67 67 68 68 69 70 70 70 69 69 69 69 69 69 69 69
55 53 51 52 52 52 53 55 53 52 52 52 53 55 55 55 54 56 55 53 52 53 54 56 56 54 57 57 57 57 56 58 60 61 62 66 69 69 64 62 61 57 60 61 61 62 62 62 62 59 59 59 60 60 60 63 64 65 66 66 65 64 64 64 65 66 66 66 66 67 67 68 69 69 69 69 69 69 70 69 69 69 69 69 68
53 51 50 50 51 52 53 55 53 51 51 52 52 52 53 54 54 54 54 53 53 54 54 55 54 54 54 54 53 53 53 52 54 57 58 62 66 66 66 66 65 65 65 66 66 67 67 66 65 67 68 68 68 68 68 67 66 66 66 67 67 66 66 66 66 66 66 66 67 67 67 68 68 68 68 69 69 69 69 69 69 69 69 69 68
54 51 50 50 50 54 54 52 51 52 51 52 52 53 53 54 53 53 54 56 57 55 53 53 55 53 52 52 52 52 53 53 55 55 61 57 60 62 62 62 62 62 65 55 61 63 64 65 66 66 67 67 67 68 69 69 69 68 68 68 67 67 66 65 65 65 66 66 66 66 67 67 67 68 68 68 68 68 69 69 69 69 69 69 68
52 51 51 51 51 52 53 51 51 53 51 51 51 51 55 52 51 53 52 56 54 50 48 51 52 51 51 51 53 52 52 53 52 49 47 46 46 47 50 49 47 52 53 51 57 60 62 64 64 65 65 66 66 67 68 68 69 69 69 66 68 68 67 66 66 66 66 66 66 66 66 66 67 67 67 67 68 68 68 67 69 69 68 68 68
52 50 52 50 52 52 52 51 51 52 51 51 51 52 51 51 47 48 49 52 49 46 45 45 46 48 55 52 52 51 51 49 47 46 45 44 45 45 45 45 46 47 47 55 60 62 63 63 64 64 65 65 66 66 67 68 68 68 69 69 69 68 67 67 67 66 66 66 66 66 66 66 66 67 67 67 67 68 68 68 69 68 68 68 68
50 50 50 51 52 53 52 53 53 53 52 52 51 52 51 51 51 48 47 47 47 46 45 44 45 45 46 49 50 51 50 47 45 44 44 44 44 44 44 44 45 46 47 50 58 60 61 62 62 63 64 64 64 65 66 66 67 67 68 68 68 69 69 68 68 68 67 67 68 67 67 67 67 66 67 66 66 67 67 68 68 68 68 68 68
49 49 49 51 52 53 52 52 52 52 51 51 51 51 50 51 49 49 50 48 47 45 45 45 45 45 44 44 44 44 44 45 44 43 43 44 43 43 43 43 45 45 46 54 58 59 60 61 62 62 63 63 63 64 64 65 65 65 66 66 67 67 68 69 69 69 68 69 69 68 67 67 66 66 65 66 66 67 67 67 68 68 68 68 68
48 49 50 50 50 50 50 49 49 50 50 50 50 50 50 50 49 49 49 49 50 48 46 45 44 44 44 45 46 46 46 46 46 46 45 44 43 43 43 48 45 45 49 57 59 59 60 60 61 61 62 63 63 64 64 65 65 65 66 66 67 67 68 69 70 70 69 69 69 68 67 68 67 67 67 67 68 67 67 67 68 68 68 68 68
48 51 49 49 48 49 49 49 50 50 50 51 50 51 51 51 52 51 50 50 50 50 50 51 50 48 51 49 47 46 45 45 45 45 44 44 44 44 46 54 55 56 50 53 56 57 58 59 60 61 62 62 63 63 64 64 65 65 65 66 66 67 67 68 69 70 70 69 69 68 68 68 68 68 68 68 68 68 68 68 68 68 68 68 68
48 47 47 49 48 48 49 50 50 50 50 50 51 52 52 52 52 52 50 51 51 50 50 50 51 51 48 46 45 44 44 44 44 44 44 44 45 47 52 53 54 56 58 59 59 59 59 60 60 61 62 62 63 63 64 64 65 65 66 66 66 67 67 68 68 69 70 69 68 68 67 69 68 68 69 69 69 69 69 69 68 68 68 69 69
47 47 47 47 48 49 49 50 49 50 51 51 51 51 51 52 52 52 52 51 51 51 50 50 50 50 50 52 52 49 48 47 46 46 45 45 44 50 52 54 54 56 58 59 60 61 61 62 63 63 64 64 64 65 65 65 66 66 65 67 67 68 68 68 69 69 70 70 70 70 69 69 69 69 69 69 69 69 69 69 69 68 67 67 66
47 47 48 49 49 49 49 49 50 51 51 51 51 50 51 50 51 52 52 52 52 52 51 50 51 50 49 49 53 53 52 49 48 47 49 50 48 52 54 55 56 57 58 59 59 60 61 62 63 64 65 66 66 67 67 67 67 68 68 68 69 69 65 68 67 69 69 70 70 71 70 70 70 70 69 69 69 69 69 68 69 69 68 67 67
48 50 50 50 50 48 48 50 51 50 50 51 50 50 51 51 52 52 52 52 51 51 51 50 50 50 50 50 50 53 52 50 49 50 51 53 56 57 57 57 57 58 58 59 60 61 62 63 65 64 63 62 62 63 63 63 64 64 65 65 66 66 67 68 68 69 69 70 70 70 70 70 71 71 70 70 69 69 69 69 68 68 69 68 68
49 47 48 48 48 48 48 48 49 49 49 49 49 50 51 51 50 50 50 50 50 51 51 51 51 51 51 51 51 51 50 50 50 50 51 51 50 51 53 57 58 59 59 60 61 62 62 61 60 59 59 59 60 60 60 61 61 62 62 62 63 63 65 66 66 67 67 68 69 69 70 70 70 71 71 70 70 70 70 69 68 69 69 69 69
46 46 47 47 47 46 47 48 49 48 49 49 50 50 50 51 51 51 50 50 50 50 50 51 50 51 51 50 48 47 49 50 50 50 51 51 51 51 52 56 59 60 60 60 59 59 58 57 56 56 57 57 57 57 57 57 58 58 58 59 60 61 62 63 64 65 67 67 68 68 68 69 69 69 69 70 67 68 69 69 68 68 68 67 68
45 45 46 47 47 47 47 48 47 47 47 49 47 48 50 50 50 51 51 51 51 51 50 50 50 51 49 47 45 44 48 50 51 51 51 51 52 52 54 55 58 58 57 57 56 56 55 54 55 54 54 55 55 55 55 54 55 56 56 56 57 58 59 60 62 63 65 67 68 68 68 68 67 67 68 64 68 69 69 69 69 68 68 68 67
48 47 46 46 45 44 44 44 45 45 46 46 47 48 48 49 49 50 50 51 51 52 52 51 51 51 51 49 49 48 50 51 54 53 54 55 56 57 58 57 55 55 54 54 54 54 53 53 53 53 53 53 53 53 53 53 54 54 54 54 55 55 56 57 59 61 62 64 65 66 67 67 67 68 67 67 68 68 69 68 68 68 68 68 68
45 45 45 45 44 45 46 45 45 45 45 44 44 44 46 47 48 49 49 49 49 50 50 50 50 50 50 50 49 50 51 52 52 52 53 54 56 57 56 55 54 53 52 52 51 52 52 51 51 51 51 51 52 52 52 52 53 52 52 53 53 53 54 55 57 59 61 63 64 64 64 65 65 66 65 65 67 68 68 68 68 68 68 69 68
43 43 43 42 42 43 44 45 45 44 44 44 43 44 46 46 46 46 47 46 48 49 49 50 51 51 51 51 51 51 51 52 53 54 54 55 55 55 54 53 53 52 52 52 52 51 50 50 49 49 49 49 49 49 50 51 51 51 51 51 52 52 52 53 54 56 58 59 60 61 61 62 63 64 65 66 66 66 67 67 67 66 66 67 67
44 44 43 42 40 41 42 42 43 42 43 43 43 43 43 44 45 46 47 48 49 49 49 49 49 50 50 50 51 51 52 52 53 53 53 54 54 53 51 50 51 51 50 50 50 50 49 48 48 48 48 48 48 48 49 49 50 50 50 51 51 51 51 51 52 53 53 54 56 57 59 60 61 62 64 64 65 65 66 66 67 67 67 67 66
43 43 43 40 40 42 42 42 42 42 42 44 45 46 46 45 45 46 47 47 48 48 48 48 48 49 50 51 51 52 52 53 53 53 54 54 52 50 49 49 48 48 49 49 49 49 48 47 47 47 47 47 48 48 48 48 48 49 50 50 50 50 50 50 51 51 52 52 53 54 55 56 57 59 61 62 62 63 64 64 65 65 65 66 66
42 41 40 40 41 41 41 42 43 46 45 45 46 46 46 46 46 46 46 47 47 47 47 48 48 49 50 51 51 52 52 52 53 54 54 51 48 47 47 47 47 46 46 47 47 47 47 47 46 46 47 47 48 48 47 47 47 47 47 47 47 48 48 47 48 48 49 50 51 51 52 53 54 56 58 59 61 62 62 63 63 63 62 61 60
41 40 39 40 41 42 44 45 47 46 45 46 46 45 46 46 46 46 47 48 48 49 49 50 50 51 52 52 53 53 54 54 52 48 48 47 47 46 46 46 47 46 46 46 45 45 45 45 46 46 47 47 47 47 47 47 46 46 45 45 45 45 43 42 42 44 44 46 47 49 51 52 53 55 57 58 60 61 61 59 58 57 55 55 55
39 40 41 41 43 43 44 45 44 44 44 45 45 45 46 47 47 48 48 49 49 50 51 51 52 51 50 50 51 51 50 49 48 48 47 47 46 47 47 46 46 46 46 45 45 45 44 45 44 45 46 46 46 46 46 46 46 45 44 44 42 40 40 41 43 43 43 45 46 47 49 51 54 55 57 58 58 58 57 56 54 54 54 53 53
40 40 40 40 40 41 42 42 42 42 43 43 44 44 45 45 46 46 47 47 48 48 49 49 49 49 49 49 50 49 49 48 48 48 48 47 46 46 46 46 45 44 44 44 44 43 43 44 45 45 45 45 44 44 44 44 44 43 43 41 39 38 38 39 40 38 40 42 44 47 50 52 54 56 56 55 54 54 54 53 53 53 52 52 51